Regional Weather Roundup
Issued by NWS

Home | Current Version | Previous Version | Graphics & Text | Print | Product List | Glossary On
Versions: 1 2 3 4 5 6 7 8 9 10 11 12 13 14 15 16 17 18 19 20 21 22 23 24 25 26 27 28 29 30 31 32 33 34 35 36 37 38 39 40 41 42 43 44 45 46 47 48 49 50
000
ASUS45 KTFX 192110
RWRMT
MONTANA REGIONAL WEATHER ROUNDUP
NATIONAL WEATHER SERVICE GREAT FALLS MT
300 PM MDT TUE SEP 19 2017

NOTE: "FAIR" INDICATES FEW OR NO CLOUDS BELOW 12000 FEET WITH NO
SIGNIFICANT WEATHER AND/OR OBSTRUCTIONS TO VISIBILITY.

MTZ001>007-043-192200-
WEST OF THE DIVIDE

CITY           SKY/WX    TMP DP  RH WIND       PRES   REMARKS
KALISPELL      LGT RAIN  50  41  71 S9        29.66F
MISSOULA       LGT RAIN  48  39  71 SW10G18   29.73F
BUTTE          CLOUDY    44  30  57 W16G23    29.73F
MULLAN PASS    SNOW      32  30  92 VRB7      29.70F VSB 1/4 WCI  26
ANACONDA         N/A     45  30  57 SW9G16    29.73F
DEER LODGE       N/A     45  27  49 W14G23    29.72R
HAMILTON         N/A     48  34  57 S9        29.74S
LIBBY            N/A     46  45  93 S5        29.68F
$$

MTZ008-052>055-192200-
SOUTHWEST MONTANA

CITY           SKY/WX    TMP DP  RH WIND       PRES   REMARKS
BOZEMAN        CLOUDY    52  32  46 SW12      29.69F
DILLON         CLOUDY    50  30  46 SW14      29.72F
W YELLOWSTONE  CLOUDY    34  34 100 S7        29.80F WCI  28
ENNIS          MIX PCPN  41  30  65 SW25G35   29.81R
THREE FORKS      N/A     50  30  46 W13       29.73R
$$

MTZ009-010-012-014-046-048-049-054-192200-
EAST SLOPES AND CENTRAL MONTANA

CITY           SKY/WX    TMP DP  RH WIND       PRES   REMARKS
CUT BANK       CLOUDY    54  29  38 SW24G31   29.59F
GREAT FALLS    CLOUDY    54  26  34 W18G26    29.63S
MALMSTROM AFB  CLOUDY    56  26  31 SW24G31   29.63F
HELENA         CLOUDY    58  28  32 W12G17    29.64F
BOWMANS CRNR     N/A     51  25  37 SW12      29.63F
CHOTEAU          N/A     52  27  37 W7        29.64S
FAIRFIELD        N/A     53  25  33 W15       29.62S
POWER            N/A     55  24  31 W13G18    29.61S
RAYNESFORD       N/A     54  26  33 W21G29    29.63F
$$

MTZ011-013-016-021-045-047-050-051-192200-
NORTH CENTRAL MONTANA

CITY           SKY/WX    TMP DP  RH WIND       PRES   REMARKS
HAVRE          PTSUNNY   60  30  32 W10       29.58F
LEWISTOWN      CLOUDY    54  26  34 W14G23    29.63S
N BAR RANCH    PTSUNNY   54  25  32 W10G18    29.66S
CHINOOK          N/A     59  30  33 W14G21    29.58R
DENTON           N/A     55  27  33 W10G17    29.59F
GEYSER         PTSUNNY   55  28  35 NW17G28   29.62S
GRASS RANGE    PTSUNNY   56  26  30 W15G26    29.59S
JUDITH GAP     PTSUNNY   51  25  36 NW23      29.64F
WINIFRED         N/A     55  29  36 W15G22    29.62S
$$

MTZ017>020-022>027-061-062-192200-
NORTHEAST MONTANA

CITY           SKY/WX    TMP DP  RH WIND       PRES   REMARKS
GLASGOW        CLOUDY    57  39  51 W18G25    29.54R
JORDAN           N/A     56  35  45 W16       29.61R
SIDNEY         CLOUDY    63  41  44 NW18G25   29.51R
WOLF POINT     CLOUDY    62  38  40 W15       29.53R
MALTA          SUNNY     59  36  41 NW20G26   29.57R
PLENTYWOOD       N/A     61  43  51 W14G22    29.47S
POPLAR           N/A     59  39  47 W15       29.53R
$$

MTZ028>42-056>058-192200-
SOUTHCENTRAL AND SOUTHEAST MONTANA

CITY           SKY/WX    TMP DP  RH WIND       PRES   REMARKS
BAKER          CLOUDY    56  42  59 W15       29.59R
BILLINGS       CLOUDY    58  33  39 W10G24    29.66F
LIVINGSTON     CLOUDY    50  35  56 NW12G22   29.69S
MILES CITY     CLOUDY    54  38  54 W21G30    29.64R
BIG TIMBER     MOSUNNY   52  30  43 W28G35    29.70S
HARLOWTON      PTSUNNY   50  31  48 MISG      29.66S
LAUREL           N/A     57  32  38 NW10      29.67F
$$

REGIONAL REPORTS...DAKOTAS

CITY           SKY/WX    TMP DP  RH WIND       PRES   REMARKS
WILLISTON      CLOUDY    62  48  60 W16       29.49R
MINOT          CLOUDY    65  56  72 SW16G22   29.43S
DICKINSON      CLOUDY    59  49  69 W15       29.53R
BEACH          CLOUDY    57  39  51 NW14      29.58R
CROSBY         CLOUDY    61  50  67 W16       29.47S
TIOGA          CLOUDY    61  55  82 W13       29.49S
WATFORD CITY   PTSUNNY   61  48  63 W12G18    29.50R
BISMARCK       MOSUNNY   74  53  48 SW8       29.46S
GRAND FORKS    CLOUDY    75  64  68 SE18G25   29.56R
FARGO          CLOUDY    73  64  73 SE18G32   29.56F
BUFFALO SD       N/A     59  47  64 NW18      29.52R
RAPID CITY     MOSUNNY   70  46  43 N15       29.58R
$$

REGIONAL REPORTS...WYOMING/IDAHO/WASHINGTON

CITY           SKY/WX    TMP DP  RH WIND       PRES   REMARKS
GILLETTE       CLOUDY    48  46  93 NW16      29.68R
SHERIDAN       CLOUDY    50  38  63 NW12      29.70F
BUFFALO WY     LGT RAIN  41  36  82 N18G29    29.72R
CODY           MOSUNNY   51  37  58 N9        29.72R
YELLOWSTONE LA   N/A     29  28  96 W8G18     29.83R WCI  21
IDAHO FALLS    CLOUDY    53  31  42 SW24G39   29.82F
SALMON         CLOUDY    51  36  56 S21G28    29.75F
BOISE          PTSUNNY   54  43  66 E6        29.89F
SPOKANE        LGT RAIN  47  44  90 SW15      29.71S
$$

REGIONAL REPORTS...ALBERTA

CITY           SKY/WX    TMP DP  RH WIND       PRES   REMARKS
EDMONTON       CLOUDY    39  37  93 W14G21    29.42R WCI  31
CALGARY        MOSUNNY   55  16  21 W12G22    29.48F
LETHBRIDGE     PTSUNNY   61  23  23 W20G31    29.52F
MEDICINE HAT   PTSUNNY   57  32  38 W8        29.53S
$$

REGIONAL REPORTS...SASKATCHEWAN

CITY           SKY/WX    TMP DP  RH WIND       PRES   REMARKS
SWIFT CURRENT  PTSUNNY   52  37  58 W22G30    29.48S
REGINA         PTSUNNY   55  50  82 W18G24    29.42R
SASKATOON      LGT RAIN  52  48  87 W15       29.42S
$$



USA.gov is the U.S. government's official web portal to all federal, state and local government web resources and services.